Location: ?
(35.4996°N, 139.3166°E)
Time: 06:41:09
(UTC+00:00)

CZ-4 R/B - Visible Passes

Search period start: 13 July 2024 00:00
Search period end: 23 July 2024 00:00
Orbit: 679 x 747 km, 98.6° (Epoch: 12 July)

Date Brightness Start Highest point End Pass type
(mag) Time Alt. Az. Time Alt. Az. Time Alt. Az.
13 Jul 6.3 17:01:27 10° NE 17:04:36 17° E 17:07:42 10° SE visible
13 Jul 4.4 18:37:57 10° N 18:42:42 45° WNW 18:47:09 11° SW visible
14 Jul 4.6 17:46:04 10° NNE 17:50:53 50° E 17:54:36 16° S visible
15 Jul 6.4 16:56:05 10° ENE 16:58:41 14° E 17:01:16 10° SE visible
15 Jul 4.2 18:32:03 10° N 18:36:52 53° WNW 18:41:08 13° SSW visible
16 Jul 4.9 17:40:19 10° NNE 17:45:01 43° E 17:48:34 16° SSE visible
17 Jul 6.5 16:50:55 10° ENE 16:52:46 12° E 16:54:36 10° ESE visible
17 Jul 4.0 18:26:10 10° N 18:31:02 61° WNW 18:35:07 14° SSW visible
18 Jul 5.1 17:34:35 10° NNE 17:39:08 37° E 17:42:33 16° SSE visible
19 Jul 3.9 18:20:17 10° N 18:25:12 72° WNW 18:29:05 16° SSW visible
20 Jul 5.4 17:28:52 10° NE 17:33:15 31° E 17:36:30 15° SSE visible
20 Jul 5.2 19:07:02 10° NNW 19:10:56 24° WNW 19:14:48 10° WSW visible
21 Jul 3.8 18:14:25 10° N 18:19:21 83° WNW 18:23:02 17° SSW visible
22 Jul 5.6 17:23:11 10° NE 17:27:20 27° E 17:30:27 15° SSE visible
22 Jul 5.0 19:01:00 10° NNW 19:05:07 28° WNW 19:09:10 10° SW visible
